Location: Bidwell Hollow
(37.7387°N, 90.1707°W)
Time: 02:34:18
(UTC+00:00)

Vanguard 3 - Pass Details

Date: 18 May 2026
Orbit: 507 x 3204 km, 33.3° (Epoch: 6 June)

Event Time Altitude Azimuth Distance (km) Brightness Sun altitude
Rises 18:46:09 0° 242° (WSW) 6,083 11.9 69.0°
Reaches altitude 10° 18:49:44 10° 240° (WSW) 5,347 11.8 68.6°
Maximum altitude 19:06:59 68° 162° (SSE) 3,344 11.8 66.4°
Drops below altitude 10° 19:25:47 10° 85° (E) 5,770 11.4 63.6°
Sets 19:29:50 0° 83° (E) 6,566 11.5 63.0°
